Terug naar catalogus

ONEWEB-0511

ActiefCommunicatiePO
NORAD 54129·PAYLOAD·🇬🇧 United Kingdom

Gelanceerd Oct 22, 2022 vanaf Satish Dhawan Space Centre

Loading…

Volgende Passages (komende 24 uur)

TLE

VersSource: CelesTrak SupGP

Epoch: Sep 14, 2026, 17:27 UTC

1 54129C 22138S   26257.72759676 -.00001470  00000+0 -36775-2 0  2578
2 54129  87.9105 287.1324 0002221  94.5741  16.5949 13.19723909    16

Volg ONEWEB-0511 in realtime met AllMySat

Download on the App Store